This demonstration page uses our WeatherBlox Daily Observations layout. Learn more.

Left ArrowRight Arrow

Hourly Observations for March 16, 2020

Temp ( °F °C ) Dew Point ( °F °C ) Humidity (%) Winds ( mph kmh ) Pressure ( in mb ) Visibility ( mi km ) Precip ( " mm )
12:51 am 00:51 Clear 45 7.2 36 2.2 71 71 E 3 6 29.99 1016 10 16 0.00 0.00
1:51 am 01:51 Clear 43 6.1 35 1.7 74 74 Calm 29.98 1015 10 16 0.00 0.00
2:51 am 02:51 Clear 42 5.6 35 1.7 76 76 Calm 29.97 1015 10 16 0.00 0.00
3:51 am 03:51 Clear 40 4.4 34 1.1 79 79 E 3 6 29.97 1015 10 16 0.00 0.00
4:51 am 04:51 Clear 40 4.4 34 1.1 79 79 Calm 29.97 1015 10 16 0.00 0.00
5:51 am 05:51 Clear 39 3.9 34 1.1 82 82 Calm 29.99 1016 10 16 0.00 0.00
6:51 am 06:51 Sunny 41 5 34 1.1 76 76 SSE 7 11 30.01 1016 10 16 0.00 0.00
7:51 am 07:51 Sunny 54 12.2 35 1.7 49 49 SE 9 15 30.02 1017 10 16 0.00 0.00
8:51 am 08:51 Sunny 61 16.1 36 2.2 39 39 ESE 9 15 30.01 1016 10 16 0.00 0.00
9:51 am 09:51 Sunny 64 17.8 35 1.7 34 34 ESE 10 17 30.00 1016 10 16 0.00 0.00
10:51 am 10:51 Sunny 68 20 37 2.8 32 32 E 9 15 29.98 1015 10 16 0.00 0.00
11:51 am 11:51 Sunny 71 21.7 34 1.1 26 26 SE 13 20 29.96 1015 10 16 0.00 0.00
12:51 pm 12:51 Sunny 74 23.3 30 -1.1 20 20 SSE 13 20 29.93 1013 10 16 0.00 0.00
1:51 pm 13:51 Sunny 74 23.3 26 -3.3 17 17 SE 12 19 29.89 1012 10 16 0.00 0.00
2:51 pm 14:51 Sunny 76 24.4 25 -3.9 15 15 SE 10 17 29.86 1011 10 16 0.00 0.00
3:51 pm 15:51 Sunny 77 25 24 -4.4 14 14 SSE 10 17 29.84 1010 10 16 0.00 0.00
4:51 pm 16:51 Sunny 77 25 22 -5.6 13 13 SSE 13 20 29.82 1010 10 16 0.00 0.00
5:51 pm 17:51 Sunny 74 23.3 25 -3.9 16 16 SE 7 11 29.82 1010 10 16 0.00 0.00
6:51 pm 18:51 Clear 65 18.3 28 -2.2 25 25 E 7 11 29.84 1011 10 16 0.00 0.00
7:51 pm 19:51 Clear 64 17.8 28 -2.2 26 26 WNW 9 15 29.84 1011 10 16 0.00 0.00
8:51 pm 20:51 Clear 62 16.7 33 0.6 34 34 NNW 8 13 29.84 1011 10 16 0.00 0.00
9:51 pm 21:51 Clear 59 15 31 -0.6 35 35 W 5 7 29.87 1011 10 16 0.00 0.00
10:51 pm 22:51 Clear 55 12.8 33 0.6 44 44 SE 6 9 29.88 1012 10 16 0.00 0.00
11:51 pm 23:51 Clear 53 11.7 33 0.6 47 47 SE 5 7 29.86 1011 10 16 0.00 0.00

Powered by AerisWeather